Regional Weather Roundup
Issued by NWS Portland, ME

Current Version | Previous Version | Text Only | Print | Product List | Glossary Off
Versions: 1 2 3 4 5 6 7 8 9 10 11 12 13 14 15 16 17 18 19 20 21 22 23 24 25 26 27 28 29 30 31 32 33 34 35 36 37 38 39 40 41 42 43 44 45 46 47 48 49 50
000 ASUS41 KGYX 111005 RWRGYX WEATHER ROUNDUP FOR MAINE AND NEW HAMPSHIRE NATIONAL WEATHER SERVICE GRAY ME 500 AM EST TUE DEC 11 2018 MEZ002-005-006-010-012-015-018-020-021-024-026-027-029-111100- MAINE CITY SKY/WX TMP DP RH WIND PRES REMARKS PORTLAND FAIR 11 7 84 CALM 30.20S SANFORD FAIR 4 1 88 CALM 30.18F BAR HARBOR FAIR 6 3 87 CALM 30.20S WISCASSET FAIR 6 3 87 CALM 30.22R ROCKLAND FAIR 9 5 84 NW3 30.20S FRYEBURG FAIR -3 -7 82 CALM 30.17R LEWISTONAUBURN FAIR 3 0 87 CALM 30.19R AUGUSTA FAIR 6 3 87 CALM 30.18R WATERVILLE FAIR 3 -3 76 MISG 30.15R BANGOR FAIR 6 2 83 CALM 30.19S GREENVILLE N/A 3 -1 83 W3 30.05R MILLINOCKET FAIR 3 -2 79 CALM 30.16S HOULTON FAIR -5 -8 87 CALM 30.11F PRESQUE ISLE FAIR -15 -20 78 CALM 30.14R FRENCHVILLE FAIR 1 -6 72 CALM 30.06S CARIBOU FAIR -6 -12 75 CALM 30.11S $$ NHZ002-005-008-009-011-012-014-111100- NEW HAMPSHIRE CITY SKY/WX TMP DP RH WIND PRES REMARKS PORTSMOUTH CLEAR 14 7 72 NW5 30.17S ROCHESTER FAIR 10 7 87 NW6 30.17S NASHUA FAIR 11 10 96 NW3 30.19S MANCHESTER FAIR 15 10 80 CALM 30.17S CONCORD FAIR 8 4 83 CALM 30.18R LACONIA FAIR 8 4 83 CALM 30.16S PLYMOUTH FAIR 6 3 90 CALM 30.16F BERLIN FAIR -7 -12 79 CALM 30.11F WHITEFIELD FAIR -5 -10 79 CALM 30.13R JAFFREY FAIR 8 5 87 CALM 30.12R KEENE FAIR 7 5 91 CALM 30.18R LEBANON FAIR 8 1 73 CALM 30.15F MT WASHINGTON PTCLDY 9 -15 33 W31 N/A WCI -14 $$ VTZ005-007-008-111100- VERMONT CITY SKY/WX TMP DP RH WIND PRES REMARKS ST JOHNSBURY N/A -2 -6 83 MISG 30.15F MONTPELIER FAIR -2 -4 91 CALM 30.14F BURLINGTON FAIR 8 3 80 CALM 30.16F $$ MAZ007-012-024-CTZ003-RIZ002-NYZ038-NYZ072-111100- SOUTHERN NEW ENGLAND AND NY CITY SKY/WX TMP DP RH WIND PRES REMARKS BOSTON FAIR 24 10 55 N7 30.19S WORCESTER FAIR 16 11 80 SW3 30.12R NANTUCKET FAIR 29 24 82 NW5 30.16S PROVIDENCE FAIR 19 14 81 CALM 30.19S HARTFORD FAIR 15 12 88 CALM 30.18S ALBANY FAIR 16 9 74 CALM 30.19S NEW YORK CITY FAIR 31 18 58 N5 30.17F $$ ANZ081-ANZ082-ANZ150-NHZ014-MEZ023>029-111100- COASTAL MARINE OBSERVATIONS STATION/POSITION TIME TEMP WIND PRES WAVE AIR SEA DIR/SP/G HT/PER (UTC) (F) (DEG/KT/KT) (MB) (FT/S) MOUNT DESERT ROC 1000 22 340/ 4/ 6 1022.5R MATINICUS ROCK 0900 21 20/ 4/ 5 1021.6F ISLE OF SHOALS 0900 28 50/ 4/ 5 1021.5F JEFFREYS LEDGE 0908 46 N/A 2/ 5 CASHES LEDGE BUO 0950 26 46 1022.2R 2/ 5 $$ .............KEY.............. WCI - WIND CHILL TC - TEMPERATURE IN CELSIUS VSB - VISIBILITY IN MILES HX - HEAT INDEX FAIR- INDICATES FEW OR NO CLOUDS BELOW 12,000 FT, WITH NO SIGNIFICANT WEATHER AND/OR OBSTRUCTIONS TO VISIBILITY.

USA.gov is the U.S. government's official web portal to all federal, state and local government web resources and services.